Home > Weather > Oberlin > Past weeks

Flag for USA Past Weather in Oberlin, Ohio, USA — Yesterday and Last 2 Weeks

Now
68 °F

Clear.


Feels Like: 68 °F
Forecast: 70 / 87 °F
Wind: No wind

Location: Lorain County Regional Airport

Current Time: Aug 28, 2016 at 3:14:17 AM

Latest Report: Aug 28, 2016 at 1:53 AM


Visibility: 10 mi

Pressure: 30.12 "Hg

Humidity: 93%

Dew Point: 66 °F

Location of OberlinLocation

Past Weather in Oberlin — Graph

°F

Oberlin Temperature Yesterday

Maximum temperature yesterday: 89 °F (at 2:53 PM)
Minimum temperature yesterday: 62 °F (at 12:53 AM)
Average temperature yesterday: 73 °F

High & Low Weather Summary for the Past Weeks

 TemperatureHumidityPressure
High89 °F (Aug 27, 2:53 PM)97% (Aug 14, 7:53 AM)30.31 "Hg (Aug 14, 7:53 AM)
Low53 °F (Aug 23, 4:53 AM)39% (Aug 26, 5:53 PM)29.67 "Hg (Aug 20, 9:53 PM)
Average73 °F78%30.04 "Hg
* Reported Aug 13 1:53 AM — Aug 28 1:53 AM, Oberlin, Weather by CustomWeather, © 2016

Note: Actual official high and low records may vary slightly from our data, if they occured in-between our weather recording intervals... More about our weather records

Advertising

Oberlin Weather History for the Previous 24 Hours

Scroll right to see more
 ConditionsComfort  
Time TempWeatherWind HumidityBarometerVisibility
1:53 AM
Sun, Aug 28
68 °FClear.No wind93%30.12 "Hg10 mi
12:53 AM68 °FClear.No wind93%30.12 "Hg10 mi
11:53 PM
Sat, Aug 27
67 °FClear.No wind93%30.12 "Hg10 mi
10:53 PM69 °FClear.No wind93%30.13 "Hg7 mi
9:53 PM71 °FClear.No wind93%30.13 "Hg7 mi
8:53 PM72 °FPartly sunny.No wind93%30.13 "Hg10 mi
7:53 PM72 °FThundershowers. Fog.7 mph93%30.13 "Hg6 mi
6:53 PM74 °FThunderstorms. Scattered clouds.5 mph85%30.14 "Hg10 mi
5:53 PM75 °FPassing clouds.9 mph79%30.11 "Hg10 mi
4:53 PM89 °FPartly sunny.10 mph52%30.09 "Hg10 mi
3:53 PM87 °FBroken clouds.9 mph53%30.09 "Hg10 mi
2:53 PM89 °FSunny.15 mph50%30.08 "Hg10 mi
1:53 PM88 °FSunny.9 mph52%30.09 "Hg10 mi
12:53 PM86 °FSunny.10 mph53%30.13 "Hg10 mi
11:53 AM84 °FSunny.9 mph55%30.14 "Hg10 mi
10:53 AM80 °FSunny.7 mph62%30.15 "Hg10 mi
9:53 AM76 °FSunny.12 mph67%30.16 "Hg10 mi
8:53 AM71 °FSunny.5 mph73%30.16 "Hg10 mi
7:53 AM66 °FSunny.3 mph81%30.16 "Hg10 mi
6:53 AM64 °FClear.6 mph81%30.16 "Hg10 mi
5:53 AM64 °FClear.5 mph81%30.15 "Hg10 mi
4:53 AM63 °FClear.No wind84%30.15 "Hg10 mi
3:53 AM62 °FClear.No wind86%30.15 "Hg10 mi
Weather by CustomWeather, © 2016

See weather overviewHow to use our weather pages